Waukesha, WI

10:47 PM CDT on July 27, 2017 (GMT -0500)
Waukesha County

Weather History for KUES - October, 2012

Change the Weather History Date:

Saturday, October 13, 2012

  Actual Average Record
Temperature  
Mean Temperature 48 °F -  
Max Temperature 60 °F 61 °F 86 °F (1975)
Min Temperature 37 °F 43 °F 30 °F (1980)
Degree Days  
Heating Degree Days 16    
Moisture  
Dew Point 46 °F    
Average Humidity 89    
Maximum Humidity 100    
Minimum Humidity 61    
Precipitation  
Precipitation 0.22 in - - ()
Sea Level Pressure  
Sea Level Pressure 29.97 in    
Wind  
Wind Speed 8 mph (SSE)    
Max Wind Speed 14 mph    
Max Gust Speed 18 mph    
Visibility 6 miles    
Events Rain    
Averages and records for this station are not official NWS values.
T = Trace of Precipitation, MM = Missing Value Source: NWS Daily Summary

Daily Weather History Graph

Daily Weather History Graph

Search for Another Location

Airport or City:

Trip Planner

Search our weather history database for the weather conditions in past years. The results will help you decide how hot, cold, wet, or windy it might be!

Date:

Astronomy

Oct. 13, 2012 Rise Set
Actual Time 7:04 AM CDT 6:12 PM CDT
Civil Twilight 6:36 AM CDT 6:41 PM CDT
Nautical Twilight 6:03 AM CDT 7:14 PM CDT
Astronomical Twilight 5:30 AM CDT 7:46 PM CDT
Moon 4:51 AM CDT (10/13) 4:57 PM CDT (10/13)
Length of Visible Light 12h 05m
Length of Day
11h 07m
Waning Crescent, 5% of the Moon is Illuminated
Oct 13
Waning Crescent
Oct 15
New
Oct 21
First Quarter
Oct 29
Full
Nov 6
Last Quarter

Hourly Weather History & Observations

Time (CDT) Temp. Windchill Dew Point Humidity Pressure Visibility Wind Dir Wind Speed Gust Speed Precip Events Conditions
1:35 AM 42.8 °F 38.6 °F 33.8 °F 70% 30.22 in 10.0 mi SE 6.9 mph - N/A   Clear
1:55 AM 42.8 °F 38.0 °F 33.8 °F 70% 30.19 in 10.0 mi SE 8.1 mph - N/A   Mostly Cloudy
2:15 AM 44.6 °F 39.2 °F 32.0 °F 61% 30.19 in 10.0 mi SSE 10.4 mph - N/A   Overcast
2:35 AM 44.6 °F 38.8 °F 32.0 °F 61% 30.18 in 10.0 mi SSE 11.5 mph 17.3 mph N/A   Overcast
2:55 AM 44.6 °F 39.7 °F 32.0 °F 61% 30.17 in 10.0 mi SSE 9.2 mph 16.1 mph N/A   Overcast
3:15 AM 44.6 °F 41.4 °F 32.0 °F 61% 30.17 in 10.0 mi SSE 5.8 mph - N/A Rain Light Rain
3:35 AM 42.8 °F 38.6 °F 33.8 °F 70% 30.15 in 7.0 mi SE 6.9 mph - 0.01 in Rain Light Rain
3:55 AM 41.0 °F 39.0 °F 35.6 °F 81% 30.15 in 7.0 mi East 3.5 mph - 0.04 in Rain Rain
4:15 AM 41.0 °F 36.4 °F 35.6 °F 81% 30.13 in 7.0 mi ESE 6.9 mph - 0.02 in Rain Light Rain
4:35 AM 41.0 °F 36.4 °F 35.6 °F 81% 30.14 in 10.0 mi SE 6.9 mph - 0.03 in Rain Rain
4:55 AM 39.2 °F 32.5 °F 35.6 °F 87% 30.13 in 10.0 mi ESE 10.4 mph - 0.05 in Rain Rain
5:35 AM 37.4 °F 29.8 °F 37.4 °F 100% 30.09 in 5.0 mi SE 11.5 mph 16.1 mph 0.13 in Rain Rain
5:45 AM 39.2 °F 35.9 °F 37.4 °F 93% 30.11 in 7.0 mi East 4.6 mph - N/A Rain Light Rain
6:45 AM 41.0 °F 35.8 °F 39.2 °F 93% 30.11 in 7.0 mi SSE 8.1 mph - N/A Rain Rain
7:45 AM 41.0 °F 35.8 °F 39.2 °F 93% 30.06 in 5.0 mi SE 8.1 mph - N/A Rain Rain
8:45 AM 42.8 °F 36.6 °F 42.8 °F 100% 30.01 in 7.0 mi SSE 11.5 mph - N/A   Overcast
9:45 AM 44.6 °F 40.2 °F 42.8 °F 93% 29.98 in 10.0 mi SSE 8.1 mph - N/A   Overcast
10:45 AM 46.4 °F 43.5 °F 44.6 °F 93% 29.98 in 7.0 mi SSE 5.8 mph - N/A Rain Light Rain
11:45 AM 48.2 °F - 46.4 °F 93% 29.93 in 5.0 mi SSE 8.1 mph - N/A   Light Drizzle
12:45 PM 51.8 °F - 51.8 °F 100% 29.98 in 4.0 mi South 8.1 mph - N/A Rain Light Rain
1:45 PM 51.8 °F - 51.8 °F 100% 29.86 in 4.0 mi South 6.9 mph - N/A   Drizzle
2:45 PM 53.6 °F - 51.8 °F 94% 29.83 in 4.0 mi South 5.8 mph - N/A Rain Light Rain
3:48 PM 55.4 °F - 53.6 °F 94% 29.80 in 4.0 mi South 9.2 mph - N/A   Overcast
4:45 PM 55.4 °F - 55.4 °F 100% 29.80 in 4.0 mi South 11.5 mph 18.4 mph N/A   Overcast
5:14 PM 55.4 °F - 55.4 °F 100% 29.78 in 2.0 mi SSW 13.8 mph 17.3 mph N/A   Overcast
5:45 PM 55.4 °F - 55.4 °F 100% 29.78 in 3.0 mi SSW 10.4 mph 16.1 mph N/A   Overcast
7:45 PM 59.0 °F - 59.0 °F 100% 29.80 in 4.0 mi SW 11.5 mph - N/A   Overcast
8:45 PM 60.8 °F - 60.8 °F 100% 29.80 in 4.0 mi SW 8.1 mph - N/A   Overcast
9:15 PM 59.0 °F - 59.0 °F 100% 29.80 in 4.0 mi SW 5.8 mph - N/A   Overcast
9:35 PM 60.8 °F - 59.0 °F 94% 29.79 in 4.0 mi SSW 6.9 mph - N/A   Overcast
9:55 PM 60.8 °F - 59.0 °F 94% 29.78 in 3.0 mi SSW 5.8 mph - N/A   Light Drizzle
10:15 PM 60.8 °F - 59.0 °F 94% 29.79 in 3.0 mi SSW 4.6 mph - N/A Rain Rain
10:35 PM 60.8 °F - 59.0 °F 94% 29.78 in 3.0 mi South 5.8 mph - N/A   Drizzle
10:55 PM 60.8 °F - 60.8 °F 100% 29.78 in 3.0 mi South 3.5 mph - N/A   Drizzle
11:35 PM 60.8 °F - 59.0 °F 94% 29.76 in 2.5 mi South 4.6 mph - N/A   Overcast